EW8409 Weather Reports


Display with metric or nautical units.
time (UTC)temp
F
wind
direction
speed
MPH
gust
MPH
rain 1hr
in
rain 24hr
in
rain mn
in
humidity
%
barometer
mb
20260503214521 57 226 0.0 2.0 0.00 0.01 0.00 42 1009.1
20260503213024 58 204 0.0 0.0 0.00 0.01 0.00 43 1009.0
20260503211520 58 212 0.0 2.0 0.00 0.01 0.00 42 1008.8
20260503210018 58 201 1.0 10.0 0.00 0.01 0.00 39 1008.8
20260503204516 59 218 0.0 4.0 0.00 0.02 0.00 38 1008.9
20260503203026 58 268 0.0 6.0 0.00 0.02 0.00 39 1009.0
20260503201518 58 271 0.0 5.0 0.00 0.02 0.00 37 1009.3
20260503200011 58 102 0.0 2.0 0.00 0.02 0.00 38 1009.5
20260503194509 57 20 0.0 8.0 0.00 0.02 0.00 36 1009.8
20260503193008 58 219 0.0 7.0 0.00 0.02 0.00 37 1010.2
20260503191512 57 178 0.0 9.0 0.00 0.02 0.00 36 1010.4
20260503190002 57 215 0.0 6.0 0.00 0.02 0.00 36 1010.7
20260503184502 58 228 0.0 6.0 0.00 0.02 0.00 35 1011.0
20260503183110 57 206 0.0 10.0 0.00 0.02 0.00 36 1011.0
20260503181608 56 272 0.0 5.0 0.00 0.02 0.00 42 1011.2
20260503180056 55 220 0.0 7.0 0.00 0.02 0.00 42 1011.3
20260503174554 56 23 0.0 6.0 0.00 0.02 0.00 41 1011.2
20260503173059 56 75 0.0 1.0 0.00 0.02 0.00 44 1011.5
20260503171550 57 256 0.0 3.0 0.00 0.02 0.00 43 1011.7
20260503081545 35 205 0.0 0.0 0.00 0.02 0.00 88 1013.7
20260503071528 36 159 0.0 0.0 0.00 0.02 0.00 85 1013.7
20260503054514 40 193 0.0 0.0 0.00 0.02 0.00 78 1014.0
20260503053013 40 192 0.0 0.0 0.00 0.02 0.00 77 1014.1
20260503051506 40 198 0.0 0.0 0.00 0.02 0.00 77 1014.2
20260503050017 40 210 0.0 0.0 0.00 0.02 0.00 77 1014.3
20260503044504 40 176 0.0 0.0 0.00 0.03 0.00 77 1014.4
20260503043002 41 214 0.0 0.0 0.00 0.03 0.00 77 1014.6
20260503041600 41 165 0.0 0.0 0.00 0.03 0.00 76 1014.6
20260503034558 41 195 0.0 0.0 0.00 0.03 0.03 75 1014.6
20260503033131 41 179 0.0 0.0 0.00 0.03 0.03 75 1014.7
20260503031600 41 195 0.0 0.0 0.00 0.03 0.03 75 1014.6
20260503030107 41 139 0.0 0.0 0.00 0.03 0.03 75 1014.8
20260503024622 41 210 0.0 0.0 0.00 0.03 0.03 74 1014.9
20260503023054 41 206 0.0 0.0 0.00 0.03 0.03 74 1014.9
20260503021600 41 207 0.0 0.0 0.00 0.03 0.03 74 1015.0
20260503020054 41 179 0.0 0.0 0.00 0.03 0.03 74 1015.1
20260503014554 42 158 0.0 0.0 0.00 0.03 0.03 73 1015.0
20260503013053 42 212 0.0 0.0 0.00 0.03 0.03 72 1015.0
20260503011559 42 20 0.0 0.0 0.00 0.03 0.03 72 1015.0
20260503010052 42 198 0.0 0.0 0.00 0.03 0.03 72 1015.0
20260503004551 42 218 0.0 0.0 0.00 0.03 0.03 72 1014.8
20260503003051 42 154 0.0 0.0 0.00 0.03 0.03 73 1014.6
20260503001559 42 302 0.0 0.0 0.00 0.03 0.03 72 1014.5
20260503000103 42 134 0.0 0.0 0.00 0.03 0.03 72 1014.6
20260502234605 42 212 0.0 0.0 0.00 0.03 0.03 71 1014.4
20260502233104 43 227 0.0 1.0 0.00 0.03 0.03 71 1014.4
20260502231601 43 221 0.0 0.0 0.00 0.03 0.03 71 1014.3
20260502230147 43 263 0.0 1.0 0.00 0.03 0.03 70 1014.3
20260502224545 44 226 0.0 0.0 0.00 0.04 0.03 68 1014.2
20260502223049 45 233 0.0 0.0 0.00 0.04 0.03 66 1014.2
20260502221558 45 25 0.0 0.0 0.01 0.04 0.03 62 1014.1
20260502220045 44 207 0.0 0.0 0.01 0.04 0.03 69 1014.1